| time (UTC) | temp F | wind direction | speed MPH | gust MPH | rain 1hr in | rain 24hr in | rain mn in | humidity % | barometer mb |
| 20260506220514 | 66 | 275 | 13.0 | 20.0 | 0.00 | 0.00 | 0.00 | 1 | 1009.5 |
| 20260506220035 | 66 | 312 | 13.0 | 19.0 | 0.00 | 0.00 | 0.00 | 1 | 1009.5 |
| 20260506215517 | 67 | 302 | 11.0 | 23.0 | 0.00 | 0.00 | 0.00 | 1 | 1009.4 |
| 20260506215015 | 66 | 284 | 12.0 | 17.0 | 0.00 | 0.00 | 0.00 | 1 | 1009.6 |
| 20260506214545 | 66 | 267 | 7.0 | 16.0 | 0.00 | 0.00 | 0.00 | 1 | 1009.8 |
| 20260506214016 | 66 | 258 | 9.0 | 17.0 | 0.00 | 0.00 | 0.00 | 1 | 1009.8 |
| 20260506213515 | 66 | 288 | 12.0 | 20.0 | 0.00 | 0.00 | 0.00 | 1 | 1009.9 |
| 20260506213042 | 65 | 291 | 11.0 | 28.0 | 0.00 | 0.00 | 0.00 | 1 | 1010.0 |
| 20260506212518 | 65 | 302 | 17.0 | 28.0 | 0.00 | 0.00 | 0.00 | 1 | 1009.9 |
| 20260506212018 | 64 | 321 | 7.0 | 15.0 | 0.00 | 0.00 | 0.00 | 1 | 1010.1 |
| 20260506211543 | 64 | 277 | 6.0 | 20.0 | 0.00 | 0.00 | 0.00 | 1 | 1010.1 |
| 20260506211015 | 64 | 285 | 11.0 | 20.0 | 0.00 | 0.00 | 0.00 | 1 | 1010.2 |
| 20260506210516 | 64 | 360 | 10.0 | 16.0 | 0.00 | 0.00 | 0.00 | 1 | 1010.3 |
| 20260506210041 | 63 | 227 | 4.0 | 15.0 | 0.00 | 0.00 | 0.00 | 1 | 1010.3 |
| 20260506205513 | 62 | 265 | 4.0 | 16.0 | 0.00 | 0.00 | 0.00 | 1 | 1010.3 |
| 20260506205018 | 62 | 315 | 7.0 | 18.0 | 0.00 | 0.00 | 0.00 | 1 | 1010.5 |
| 20260506204538 | 62 | 248 | 12.0 | 18.0 | 0.00 | 0.00 | 0.00 | 1 | 1010.5 |
| 20260506204016 | 62 | 240 | 10.0 | 18.0 | 0.00 | 0.00 | 0.00 | 1 | 1010.6 |
| 20260506203513 | 61 | 337 | 2.0 | 12.0 | 0.00 | 0.00 | 0.00 | 1 | 1010.7 |
| 20260506203047 | 61 | 251 | 7.0 | 19.0 | 0.00 | 0.00 | 0.00 | 1 | 1010.8 |
| 20260506202517 | 60 | 243 | 8.0 | 19.0 | 0.00 | 0.00 | 0.00 | 1 | 1010.7 |
| 20260506202017 | 61 | 240 | 8.0 | 14.0 | 0.00 | 0.00 | 0.00 | 1 | 1010.8 |
| 20260506201547 | 60 | 298 | 6.0 | 16.0 | 0.00 | 0.00 | 0.00 | 1 | 1011.0 |
| 20260506201027 | 60 | 259 | 11.0 | 17.0 | 0.00 | 0.00 | 0.00 | 1 | 1011.2 |
| 20260506200516 | 60 | 303 | 7.0 | 17.0 | 0.00 | 0.00 | 0.00 | 1 | 1011.1 |
| 20260506200152 | 60 | 228 | 10.0 | 14.0 | 0.00 | 0.00 | 0.00 | 1 | 1011.2 |
| 20260506195518 | 59 | 228 | 8.0 | 15.0 | 0.00 | 0.00 | 0.00 | 1 | 1011.2 |
| 20260506195016 | 59 | 290 | 8.0 | 16.0 | 0.00 | 0.00 | 0.00 | 1 | 1011.4 |
| 20260506194617 | 59 | 265 | 7.0 | 14.0 | 0.00 | 0.00 | 0.00 | 1 | 1011.4 |
| 20260506194017 | 58 | 242 | 7.0 | 17.0 | 0.00 | 0.00 | 0.00 | 1 | 1011.6 |
| 20260506193520 | 58 | 269 | 7.0 | 19.0 | 0.00 | 0.00 | 0.00 | 1 | 1011.5 |
| 20260506193055 | 58 | 243 | 12.0 | 19.0 | 0.00 | 0.00 | 0.00 | 1 | 1011.6 |
| 20260506192519 | 58 | 221 | 4.0 | 17.0 | 0.00 | 0.00 | 0.00 | 1 | 1011.5 |
| 20260506192017 | 57 | 222 | 9.0 | 17.0 | 0.00 | 0.00 | 0.00 | 1 | 1011.5 |
| 20260506191556 | 56 | 208 | 7.0 | 14.0 | 0.00 | 0.00 | 0.00 | 1 | 1011.7 |
| 20260506191018 | 56 | 207 | 5.0 | 17.0 | 0.00 | 0.00 | 0.00 | 1 | 1011.8 |
| 20260506190523 | 56 | 223 | 9.0 | 17.0 | 0.00 | 0.00 | 0.00 | 1 | 1012.0 |
| 20260506185517 | 56 | 224 | 5.0 | 15.0 | 0.00 | 0.00 | 0.00 | 1 | 1012.1 |
| 20260506185015 | 56 | 233 | 10.0 | 15.0 | 0.00 | 0.00 | 0.00 | 1 | 1012.1 |
| 20260506184552 | 55 | 205 | 7.0 | 12.0 | 0.00 | 0.00 | 0.00 | 1 | 1012.3 |
| 20260506184014 | 54 | 230 | 3.0 | 17.0 | 0.00 | 0.00 | 0.00 | 1 | 1012.4 |
| 20260506183518 | 55 | 214 | 12.0 | 17.0 | 0.00 | 0.00 | 0.00 | 1 | 1012.4 |
| 20260506183052 | 53 | 207 | 3.0 | 16.0 | 0.00 | 0.00 | 0.00 | 1 | 1012.7 |
| 20260506182516 | 53 | 196 | 6.0 | 15.0 | 0.00 | 0.00 | 0.00 | 1 | 1012.7 |
| 20260506182018 | 54 | 255 | 10.0 | 15.0 | 0.00 | 0.00 | 0.00 | 1 | 1012.9 |
| 20260506181531 | 54 | 208 | 7.0 | 16.0 | 0.00 | 0.00 | 0.00 | 1 | 1012.9 |
| 20260506181014 | 54 | 242 | 8.0 | 16.0 | 0.00 | 0.00 | 0.00 | 1 | 1012.8 |
| 20260506180525 | 52 | 198 | 5.0 | 12.0 | 0.00 | 0.00 | 0.00 | 1 | 1012.7 |
| 20260506180048 | 52 | 213 | 6.0 | 16.0 | 0.00 | 0.00 | 0.00 | 1 | 1013.0 |
| 20260506175515 | 52 | 199 | 9.0 | 16.0 | 0.00 | 0.00 | 0.00 | 1 | 1013.1 |
| 20260506175014 | 52 | 163 | 9.0 | 14.0 | 0.00 | 0.00 | 0.00 | 1 | 1013.1 |
| 20260506174547 | 51 | 221 | 5.0 | 17.0 | 0.00 | 0.00 | 0.00 | 1 | 1013.3 |
| 20260506174018 | 51 | 241 | 12.0 | 17.0 | 0.00 | 0.00 | 0.00 | 1 | 1013.2 |
| 20260506173520 | 51 | 186 | 7.0 | 16.0 | 0.00 | 0.00 | 0.00 | 1 | 1013.3 |
| 20260506173129 | 51 | 211 | 11.0 | 16.0 | 0.00 | 0.00 | 0.00 | 1 | 1013.4 |
| 20260506172518 | 50 | 142 | 7.0 | 14.0 | 0.00 | 0.00 | 0.00 | 1 | 1013.4 |
| 20260506172021 | 50 | 213 | 10.0 | 16.0 | 0.00 | 0.00 | 0.00 | 1 | 1013.3 |
| 20260506171822 | 50 | 189 | 6.0 | 16.0 | 0.00 | 0.00 | 0.00 | 1 | 1013.4 |
| 20260506171015 | 49 | 184 | 7.0 | 14.0 | 0.00 | 0.00 | 0.00 | 1 | 1013.5 |
| 20260506170526 | 49 | 220 | 10.0 | 13.0 | 0.00 | 0.00 | 0.00 | 1 | 1013.6 |
| 20260506170041 | 49 | 206 | 9.0 | 15.0 | 0.00 | 0.00 | 0.00 | 1 | 1013.8 |
| 20260506165514 | 49 | 189 | 11.0 | 15.0 | 0.00 | 0.00 | 0.00 | 1 | 1013.9 |
| 20260506165016 | 49 | 205 | 9.0 | 14.0 | 0.00 | 0.00 | 0.00 | 1 | 1014.1 |
| 20260506164539 | 49 | 196 | 9.0 | 15.0 | 0.00 | 0.00 | 0.00 | 1 | 1014.2 |
| 20260506164017 | 48 | 200 | 10.0 | 14.0 | 0.00 | 0.00 | 0.00 | 1 | 1014.0 |
| 20260506163513 | 48 | 225 | 8.0 | 14.0 | 0.00 | 0.00 | 0.00 | 1 | 1014.1 |
| 20260506163050 | 47 | 194 | 10.0 | 14.0 | 0.00 | 0.00 | 0.00 | 1 | 1014.2 |
| 20260506162515 | 47 | 183 | 6.0 | 16.0 | 0.00 | 0.00 | 0.00 | 1 | 1014.2 |
| 20260506162016 | 46 | 205 | 6.0 | 12.0 | 0.00 | 0.00 | 0.00 | 1 | 1014.3 |
| 20260506161553 | 46 | 195 | 6.0 | 11.0 | 0.00 | 0.00 | 0.00 | 1 | 1014.4 |
| 20260506161019 | 46 | 211 | 7.0 | 12.0 | 0.00 | 0.00 | 0.00 | 1 | 1014.5 |
| 20260506160515 | 45 | 163 | 7.0 | 12.0 | 0.00 | 0.00 | 0.00 | 1 | 1014.5 |
| 20260506160046 | 45 | 210 | 7.0 | 12.0 | 0.00 | 0.00 | 0.00 | 1 | 1014.5 |
| 20260506155518 | 45 | 184 | 8.0 | 10.0 | 0.00 | 0.00 | 0.00 | 1 | 1014.7 |
| 20260506155014 | 44 | 219 | 7.0 | 11.0 | 0.00 | 0.00 | 0.00 | 1 | 1014.8 |
| 20260506154544 | 44 | 196 | 8.0 | 11.0 | 0.00 | 0.00 | 0.00 | 1 | 1015.0 |
| 20260506154013 | 44 | 184 | 6.0 | 10.0 | 0.00 | 0.00 | 0.00 | 1 | 1015.0 |
| 20260506153514 | 43 | 202 | 8.0 | 10.0 | 0.00 | 0.00 | 0.00 | 1 | 1015.0 |
| 20260506153043 | 43 | 180 | 6.0 | 10.0 | 0.00 | 0.00 | 0.00 | 1 | 1015.1 |
| 20260506152515 | 43 | 205 | 6.0 | 10.0 | 0.00 | 0.00 | 0.00 | 1 | 1015.3 |
| 20260506152013 | 42 | 208 | 6.0 | 10.0 | 0.00 | 0.00 | 0.00 | 1 | 1015.3 |
| 20260506151540 | 42 | 209 | 8.0 | 10.0 | 0.00 | 0.00 | 0.00 | 1 | 1015.4 |
| 20260506151012 | 42 | 208 | 3.0 | 9.0 | 0.00 | 0.00 | 0.00 | 1 | 1015.5 |
| 20260506150527 | 42 | 199 | 3.0 | 6.0 | 0.00 | 0.00 | 0.00 | 1 | 1015.4 |
| 20260506150047 | 41 | 199 | 3.0 | 8.0 | 0.00 | 0.00 | 0.00 | 1 | 1015.4 |
| 20260506145515 | 41 | 207 | 5.0 | 9.0 | 0.00 | 0.00 | 0.00 | 1 | 1015.5 |
| 20260506145017 | 41 | 234 | 6.0 | 9.0 | 0.00 | 0.00 | 0.00 | 1 | 1015.5 |
| 20260506144951 | 41 | 190 | 5.0 | 9.0 | 0.00 | 0.00 | 0.00 | 1 | 1015.5 |
| 20260506144015 | 41 | 264 | 4.0 | 9.0 | 0.00 | 0.00 | 0.00 | 1 | 1015.6 |
| 20260506143519 | 40 | 209 | 3.0 | 8.0 | 0.00 | 0.00 | 0.00 | 1 | 1015.5 |
| 20260506143458 | 40 | 213 | 4.0 | 8.0 | 0.00 | 0.00 | 0.00 | 1 | 1015.6 |
| 20260506142516 | 40 | 209 | 2.0 | 5.0 | 0.00 | 0.00 | 0.00 | 1 | 1015.8 |
| 20260506142018 | 39 | 209 | 2.0 | 5.0 | 0.00 | 0.00 | 0.00 | 1 | 1015.8 |
| 20260506141957 | 39 | 214 | 2.0 | 5.0 | 0.00 | 0.00 | 0.00 | 1 | 1015.9 |
| 20260506141019 | 39 | 196 | 2.0 | 5.0 | 0.00 | 0.00 | 0.00 | 1 | 1016.1 |
| 20260506140516 | 39 | 235 | 2.0 | 5.0 | 0.00 | 0.00 | 0.00 | 1 | 1016.0 |
| 20260506140049 | 39 | 247 | 0.0 | 0.0 | 0.00 | 0.00 | 0.00 | 1 | 1016.0 |
| 20260506135519 | 39 | 194 | 0.0 | 0.0 | 0.00 | 0.00 | 0.00 | 1 | 1015.9 |
| 20260506135024 | 38 | 279 | 0.0 | 0.0 | 0.00 | 0.00 | 0.00 | 1 | 1016.1 |
| 20260506134948 | 38 | 317 | 0.0 | 0.0 | 0.00 | 0.00 | 0.00 | 1 | 1016.1 |
| 20260506134015 | 37 | 269 | 0.0 | 0.0 | 0.00 | 0.00 | 0.00 | 1 | 1016.0 |
| 20260506133513 | 36 | 5 | 0.0 | 0.0 | 0.00 | 0.00 | 0.00 | 1 | 1016.1 |
| 20260506133045 | 35 | 5 | 0.0 | 0.0 | 0.00 | 0.00 | 0.00 | 1 | 1016.3 |
| 20260506132515 | 34 | 5 | 0.0 | 0.0 | 0.00 | 0.00 | 0.00 | 1 | 1016.3 |
| 20260506132016 | 32 | 5 | 0.0 | 0.0 | 0.00 | 0.00 | 0.00 | 1 | 1016.3 |
| 20260506131601 | 31 | 5 | 0.0 | 0.0 | 0.00 | 0.00 | 0.00 | 1 | 1016.4 |
| 20260506131015 | 29 | 5 | 0.0 | 2.0 | 0.00 | 0.00 | 0.00 | 1 | 1016.6 |
| 20260506130519 | 28 | 5 | 0.0 | 3.0 | 0.00 | 0.00 | 0.00 | 1 | 1016.5 |
| 20260506130048 | 27 | 5 | 1.0 | 3.0 | 0.00 | 0.00 | 0.00 | 1 | 1016.4 |
| 20260506125525 | 27 | 5 | 0.0 | 3.0 | 0.00 | 0.00 | 0.00 | 1 | 1016.5 |
| 20260506125015 | 26 | 5 | 2.0 | 4.0 | 0.00 | 0.00 | 0.00 | 1 | 1016.7 |
| 20260506124548 | 25 | 5 | 2.0 | 5.0 | 0.00 | 0.00 | 0.00 | 1 | 1016.9 |
| 20260506124027 | 24 | 5 | 3.0 | 5.0 | 0.00 | 0.00 | 0.00 | 1 | 1017.0 |
| 20260506123516 | 24 | 5 | 2.0 | 3.0 | 0.00 | 0.00 | 0.00 | 1 | 1017.1 |
| 20260506123056 | 23 | 5 | 1.0 | 4.0 | 0.00 | 0.00 | 0.00 | 1 | 1017.2 |
| 20260506122515 | 23 | 5 | 2.0 | 4.0 | 0.00 | 0.00 | 0.00 | 1 | 1017.2 |
| 20260506122014 | 22 | 5 | 1.0 | 4.0 | 0.00 | 0.00 | 0.00 | 1 | 1017.1 |
| 20260506121606 | 22 | 5 | 2.0 | 4.0 | 0.00 | 0.00 | 0.00 | 1 | 1017.2 |
| 20260506121016 | 21 | 5 | 3.0 | 5.0 | 0.00 | 0.00 | 0.00 | 1 | 1017.2 |
| 20260506120530 | 20 | 5 | 3.0 | 5.0 | 0.00 | 0.00 | 0.00 | 1 | 1017.3 |
| 20260506120110 | 20 | 5 | 2.0 | 4.0 | 0.00 | 0.00 | 0.00 | 1 | 1017.3 |
| 20260506115516 | 20 | 5 | 3.0 | 4.0 | 0.00 | 0.00 | 0.00 | 1 | 1017.5 |
| 20260506115020 | 20 | 5 | 3.0 | 4.0 | 0.00 | 0.00 | 0.00 | 1 | 1017.5 |
| 20260506114609 | 19 | 5 | 2.0 | 4.0 | 0.00 | 0.00 | 0.00 | 1 | 1017.5 |
| 20260506114017 | 19 | 5 | 2.0 | 5.0 | 0.00 | 0.00 | 0.00 | 1 | 1017.5 |
| 20260506113519 | 18 | 5 | 3.0 | 5.0 | 0.00 | 0.00 | 0.00 | 1 | 1017.5 |
| 20260506113311 | 18 | 5 | 2.0 | 3.0 | 0.00 | 0.00 | 0.00 | 1 | 1017.5 |
| 20260506112519 | 18 | 5 | 0.0 | 0.0 | 0.00 | 0.00 | 0.00 | 1 | 1017.5 |
| 20260506112016 | 18 | 5 | 0.0 | 0.0 | 0.00 | 0.00 | 0.00 | 1 | 1017.5 |
| 20260506111627 | 18 | 5 | 0.0 | 0.0 | 0.00 | 0.00 | 0.00 | 1 | 1017.7 |
| 20260506111015 | 18 | 5 | 0.0 | 0.0 | 0.00 | 0.00 | 0.00 | 1 | 1017.8 |
| 20260506110518 | 17 | 5 | 0.0 | 2.0 | 0.00 | 0.00 | 0.00 | 1 | 1017.8 |
| 20260506110124 | 18 | 5 | 0.0 | 3.0 | 0.00 | 0.00 | 0.00 | 1 | 1017.8 |
| 20260506105515 | 18 | 5 | 1.0 | 3.0 | 0.00 | 0.00 | 0.00 | 1 | 1017.9 |
| 20260506105018 | 17 | 5 | 1.0 | 3.0 | 0.00 | 0.00 | 0.00 | 1 | 1017.9 |
| 20260506104551 | 18 | 5 | 1.0 | 2.0 | 0.00 | 0.00 | 0.00 | 1 | 1018.0 |
| 20260506104020 | 18 | 5 | 0.0 | 2.0 | 0.00 | 0.00 | 0.00 | 1 | 1018.0 |
| 20260506103517 | 18 | 5 | 0.0 | 3.0 | 0.00 | 0.00 | 0.00 | 1 | 1018.1 |
| 20260506103046 | 18 | 5 | 1.0 | 3.0 | 0.00 | 0.00 | 0.00 | 1 | 1018.1 |
| 20260506102516 | 19 | 5 | 1.0 | 5.0 | 0.00 | 0.00 | 0.00 | 1 | 1018.1 |
| 20260506102016 | 19 | 5 | 2.0 | 5.0 | 0.00 | 0.00 | 0.00 | 1 | 1018.2 |
| 20260506101556 | 19 | 5 | 2.0 | 4.0 | 0.00 | 0.00 | 0.00 | 1 | 1018.3 |
| 20260506101017 | 19 | 5 | 2.0 | 5.0 | 0.00 | 0.00 | 0.00 | 1 | 1018.3 |
| 20260506100516 | 19 | 5 | 2.0 | 5.0 | 0.00 | 0.00 | 0.00 | 1 | 1018.4 |
| 20260506100050 | 19 | 5 | 3.0 | 5.0 | 0.00 | 0.00 | 0.00 | 1 | 1018.3 |
| 20260506095514 | 19 | 5 | 1.0 | 4.0 | 0.00 | 0.00 | 0.00 | 1 | 1018.4 |
| 20260506095027 | 19 | 5 | 2.0 | 4.0 | 0.00 | 0.00 | 0.00 | 1 | 1018.4 |
| 20260506094550 | 18 | 5 | 3.0 | 4.0 | 0.00 | 0.00 | 0.00 | 1 | 1018.4 |
| 20260506094023 | 19 | 5 | 2.0 | 3.0 | 0.00 | 0.00 | 0.00 | 1 | 1018.6 |
| 20260506093520 | 19 | 5 | 2.0 | 3.0 | 0.00 | 0.00 | 0.00 | 1 | 1018.6 |
| 20260506093053 | 19 | 5 | 2.0 | 4.0 | 0.00 | 0.00 | 0.00 | 1 | 1018.7 |
| 20260506092519 | 19 | 5 | 3.0 | 4.0 | 0.00 | 0.00 | 0.00 | 1 | 1018.7 |
| 20260506092020 | 19 | 5 | 2.0 | 3.0 | 0.00 | 0.00 | 0.00 | 1 | 1018.7 |
| 20260506091552 | 19 | 5 | 2.0 | 3.0 | 0.00 | 0.00 | 0.00 | 1 | 1018.8 |
| 20260506091015 | 19 | 5 | 2.0 | 4.0 | 0.00 | 0.00 | 0.00 | 1 | 1018.7 |
| 20260506090517 | 19 | 5 | 2.0 | 4.0 | 0.00 | 0.00 | 0.00 | 1 | 1018.8 |
| 20260506090343 | 20 | 5 | 2.0 | 4.0 | 0.00 | 0.00 | 0.00 | 1 | 1018.9 |
| 20260506085518 | 20 | 5 | 2.0 | 4.0 | 0.00 | 0.00 | 0.00 | 1 | 1018.9 |
| 20260506085017 | 20 | 5 | 3.0 | 4.0 | 0.00 | 0.00 | 0.00 | 1 | 1019.0 |
| 20260506084611 | 20 | 5 | 2.0 | 4.0 | 0.00 | 0.00 | 0.00 | 1 | 1019.0 |
| 20260506084018 | 19 | 5 | 2.0 | 4.0 | 0.00 | 0.00 | 0.00 | 1 | 1018.9 |
| 20260506083517 | 19 | 5 | 2.0 | 5.0 | 0.00 | 0.00 | 0.00 | 1 | 1019.0 |
| 20260506083344 | 19 | 5 | 4.0 | 5.0 | 0.00 | 0.00 | 0.00 | 1 | 1019.1 |
| 20260506082516 | 19 | 5 | 3.0 | 4.0 | 0.00 | 0.00 | 0.00 | 1 | 1019.1 |
| 20260506082028 | 20 | 5 | 2.0 | 5.0 | 0.00 | 0.00 | 0.00 | 1 | 1019.2 |
| 20260506081559 | 20 | 5 | 4.0 | 5.0 | 0.00 | 0.00 | 0.00 | 1 | 1019.3 |
| 20260506081023 | 20 | 5 | 2.0 | 6.0 | 0.00 | 0.00 | 0.00 | 1 | 1019.2 |
| 20260506080520 | 20 | 5 | 4.0 | 6.0 | 0.00 | 0.00 | 0.00 | 1 | 1019.2 |
| 20260506080105 | 21 | 5 | 3.0 | 5.0 | 0.00 | 0.00 | 0.00 | 1 | 1019.3 |
| 20260506073522 | 22 | 5 | 2.0 | 4.0 | 0.00 | 0.00 | 0.00 | 1 | 1019.5 |
| 20260506073058 | 22 | 5 | 2.0 | 5.0 | 0.00 | 0.00 | 0.00 | 1 | 1019.5 |
| 20260506072520 | 22 | 5 | 2.0 | 5.0 | 0.00 | 0.00 | 0.00 | 1 | 1019.5 |
| 20260506072018 | 23 | 5 | 3.0 | 5.0 | 0.00 | 0.00 | 0.00 | 1 | 1019.5 |
| 20260506071558 | 23 | 5 | 3.0 | 5.0 | 0.00 | 0.00 | 0.00 | 1 | 1019.4 |
| 20260506071020 | 23 | 5 | 3.0 | 4.0 | 0.00 | 0.00 | 0.00 | 1 | 1019.4 |
| 20260506070518 | 22 | 5 | 3.0 | 4.0 | 0.00 | 0.00 | 0.00 | 1 | 1019.5 |
| 20260506070123 | 22 | 5 | 3.0 | 5.0 | 0.00 | 0.00 | 0.00 | 1 | 1019.5 |
| 20260506062516 | 23 | 5 | 3.0 | 4.0 | 0.00 | 0.00 | 0.00 | 1 | 1019.7 |
| 20260506062018 | 25 | 5 | 3.0 | 4.0 | 0.00 | 0.00 | 0.00 | 1 | 1019.7 |
| 20260506061550 | 26 | 5 | 3.0 | 6.0 | 0.00 | 0.00 | 0.00 | 1 | 1019.6 |
| 20260506061017 | 27 | 5 | 4.0 | 6.0 | 0.00 | 0.00 | 0.00 | 1 | 1019.6 |
| 20260506060516 | 25 | 5 | 4.0 | 5.0 | 0.00 | 0.00 | 0.00 | 1 | 1019.6 |
| 20260506051027 | 22 | 5 | 3.0 | 5.0 | 0.00 | 0.00 | 0.00 | 1 | 1019.9 |
| 20260506050521 | 22 | 5 | 3.0 | 5.0 | 0.00 | 0.00 | 0.00 | 1 | 1019.8 |
| 20260506045027 | 23 | 5 | 2.0 | 4.0 | 0.00 | 0.00 | 0.00 | 1 | 1020.0 |
| 20260506044556 | 23 | 5 | 2.0 | 4.0 | 0.00 | 0.00 | 0.00 | 1 | 1020.0 |
| 20260506044020 | 24 | 5 | 2.0 | 4.0 | 0.00 | 0.00 | 0.00 | 1 | 1019.8 |
| 20260506043517 | 24 | 5 | 2.0 | 3.0 | 0.00 | 0.00 | 0.00 | 1 | 1020.0 |
| 20260506043056 | 25 | 5 | 1.0 | 3.0 | 0.00 | 0.00 | 0.00 | 1 | 1019.8 |
| 20260506042518 | 26 | 5 | 1.0 | 3.0 | 0.00 | 0.00 | 0.00 | 1 | 1019.8 |
| 20260506042017 | 26 | 5 | 2.0 | 3.0 | 0.00 | 0.00 | 0.00 | 1 | 1019.9 |
| 20260506041614 | 26 | 5 | 1.0 | 4.0 | 0.00 | 0.00 | 0.00 | 1 | 1019.8 |
| 20260506041027 | 26 | 5 | 0.0 | 4.0 | 0.00 | 0.00 | 0.00 | 1 | 1019.9 |
| 20260506040523 | 28 | 5 | 2.0 | 4.0 | 0.00 | 0.00 | 0.00 | 1 | 1019.8 |
| 20260506040059 | 29 | 5 | 1.0 | 4.0 | 0.00 | 0.00 | 0.00 | 1 | 1019.8 |
| 20260506035527 | 29 | 5 | 2.0 | 4.0 | 0.00 | 0.00 | 0.00 | 1 | 1019.8 |
| 20260506035016 | 29 | 5 | 2.0 | 4.0 | 0.00 | 0.00 | 0.00 | 1 | 1019.8 |
| 20260506034557 | 29 | 5 | 1.0 | 4.0 | 0.00 | 0.00 | 0.00 | 1 | 1019.6 |
| 20260506034017 | 28 | 5 | 2.0 | 4.0 | 0.00 | 0.00 | 0.00 | 1 | 1019.5 |
| 20260506033519 | 29 | 5 | 3.0 | 4.0 | 0.00 | 0.00 | 0.00 | 1 | 1019.6 |
| 20260506033107 | 30 | 5 | 2.0 | 4.0 | 0.00 | 0.00 | 0.00 | 1 | 1019.7 |
| 20260506032516 | 31 | 5 | 2.0 | 5.0 | 0.00 | 0.00 | 0.00 | 1 | 1019.5 |
| 20260506032016 | 32 | 5 | 2.0 | 4.0 | 0.00 | 0.00 | 0.00 | 1 | 1019.4 |
| 20260506031839 | 33 | 5 | 2.0 | 5.0 | 0.00 | 0.00 | 0.00 | 1 | 1019.5 |
| 20260506031021 | 33 | 5 | 4.0 | 5.0 | 0.00 | 0.00 | 0.00 | 1 | 1019.4 |
| 20260506030520 | 34 | 5 | 2.0 | 5.0 | 0.00 | 0.00 | 0.00 | 1 | 1019.3 |
| 20260506030100 | 35 | 5 | 3.0 | 5.0 | 0.00 | 0.00 | 0.00 | 1 | 1019.3 |
| 20260506025520 | 36 | 5 | 3.0 | 5.0 | 0.00 | 0.00 | 0.00 | 1 | 1019.3 |
| 20260506025018 | 36 | 5 | 3.0 | 5.0 | 0.00 | 0.00 | 0.00 | 1 | 1019.5 |
| 20260506024607 | 37 | 5 | 4.0 | 6.0 | 0.00 | 0.00 | 0.00 | 1 | 1019.2 |
| 20260506024021 | 38 | 5 | 5.0 | 6.0 | 0.00 | 0.00 | 0.00 | 1 | 1019.1 |
| 20260506023521 | 38 | 11 | 3.0 | 10.0 | 0.00 | 0.00 | 0.00 | 1 | 1019.1 |
| 20260506023106 | 39 | 348 | 3.0 | 10.0 | 0.00 | 0.00 | 0.00 | 1 | 1018.9 |
| 20260506022514 | 39 | 30 | 6.0 | 10.0 | 0.00 | 0.00 | 0.00 | 1 | 1018.9 |
| 20260506022027 | 40 | 336 | 5.0 | 10.0 | 0.00 | 0.00 | 0.00 | 1 | 1019.0 |
| 20260506021553 | 40 | 351 | 7.0 | 13.0 | 0.00 | 0.00 | 0.00 | 1 | 1019.1 |
| 20260506021020 | 41 | 360 | 9.0 | 13.0 | 0.00 | 0.00 | 0.00 | 1 | 1019.0 |
| 20260506020515 | 41 | 17 | 8.0 | 16.0 | 0.00 | 0.00 | 0.00 | 1 | 1018.9 |
| 20260506020111 | 41 | 5 | 8.0 | 16.0 | 0.00 | 0.00 | 0.00 | 1 | 1018.9 |
| 20260506015517 | 41 | 355 | 9.0 | 15.0 | 0.00 | 0.00 | 0.00 | 1 | 1018.8 |
| 20260506015019 | 42 | 344 | 11.0 | 17.0 | 0.00 | 0.00 | 0.00 | 1 | 1018.8 |
| 20260506014557 | 42 | 350 | 14.0 | 17.0 | 0.00 | 0.00 | 0.00 | 1 | 1018.7 |
| 20260506014018 | 42 | 355 | 9.0 | 16.0 | 0.00 | 0.00 | 0.00 | 1 | 1018.8 |
| 20260506013515 | 42 | 355 | 11.0 | 20.0 | 0.00 | 0.00 | 0.00 | 1 | 1018.9 |
| 20260506013052 | 42 | 5 | 14.0 | 21.0 | 0.00 | 0.00 | 0.00 | 1 | 1018.7 |
| 20260506012515 | 43 | 15 | 15.0 | 21.0 | 0.00 | 0.00 | 0.00 | 1 | 1018.8 |
| 20260506012026 | 43 | 5 | 11.0 | 24.0 | 0.00 | 0.00 | 0.00 | 1 | 1018.8 |
| 20260506011626 | 43 | 12 | 17.0 | 24.0 | 0.00 | 0.00 | 0.00 | 1 | 1018.7 |
| 20260506011015 | 43 | 360 | 12.0 | 21.0 | 0.00 | 0.00 | 0.00 | 1 | 1019.1 |
| 20260506010517 | 43 | 24 | 16.0 | 21.0 | 0.00 | 0.00 | 0.00 | 1 | 1018.9 |
| 20260506010053 | 43 | 333 | 10.0 | 19.0 | 0.00 | 0.00 | 0.00 | 1 | 1018.9 |
| 20260506005516 | 43 | 355 | 11.0 | 22.0 | 0.00 | 0.00 | 0.00 | 1 | 1018.9 |
| 20260506005015 | 43 | 9 | 15.0 | 21.0 | 0.00 | 0.00 | 0.00 | 1 | 1018.6 |
| 20260506004600 | 43 | 12 | 14.0 | 20.0 | 0.00 | 0.00 | 0.00 | 1 | 1018.8 |
| 20260506004017 | 43 | 355 | 14.0 | 20.0 | 0.00 | 0.00 | 0.00 | 1 | 1018.6 |
| 20260506003519 | 44 | 360 | 14.0 | 22.0 | 0.00 | 0.00 | 0.00 | 1 | 1018.7 |
| 20260506003049 | 44 | 5 | 13.0 | 20.0 | 0.00 | 0.00 | 0.00 | 1 | 1018.7 |
| 20260506002519 | 43 | 5 | 14.0 | 20.0 | 0.00 | 0.00 | 0.00 | 1 | 1018.6 |
| 20260506002017 | 44 | 336 | 14.0 | 22.0 | 0.00 | 0.00 | 0.00 | 1 | 1018.6 |
| 20260506001609 | 44 | 330 | 16.0 | 22.0 | 0.00 | 0.00 | 0.00 | 1 | 1018.4 |
| 20260506001018 | 44 | 355 | 16.0 | 25.0 | 0.00 | 0.00 | 0.00 | 1 | 1018.7 |
| 20260506000521 | 45 | 346 | 17.0 | 25.0 | 0.00 | 0.00 | 0.00 | 1 | 1018.6 |
| 20260506000123 | 45 | 331 | 17.0 | 23.0 | 0.00 | 0.00 | 0.00 | 1 | 1018.6 |
| 20260505235517 | 44 | 350 | 13.0 | 24.0 | 0.00 | 0.00 | 0.00 | 1 | 1018.6 |
| 20260505235020 | 45 | 355 | 18.0 | 26.0 | 0.00 | 0.00 | 0.00 | 1 | 1018.5 |
| 20260505234611 | 44 | 333 | 18.0 | 26.0 | 0.00 | 0.00 | 0.00 | 1 | 1018.7 |
| 20260505234020 | 45 | 332 | 16.0 | 25.0 | 0.00 | 0.00 | 0.00 | 1 | 1018.7 |
| 20260505233517 | 44 | 322 | 18.0 | 25.0 | 0.00 | 0.00 | 0.00 | 1 | 1018.5 |
| 20260505233116 | 44 | 349 | 16.0 | 27.0 | 0.00 | 0.00 | 0.00 | 1 | 1018.6 |
| 20260505232522 | 44 | 336 | 19.0 | 27.0 | 0.00 | 0.00 | 0.00 | 1 | 1018.4 |
| 20260505232019 | 43 | 17 | 17.0 | 24.0 | 0.00 | 0.00 | 0.00 | 1 | 1018.7 |
| 20260505231613 | 44 | 340 | 17.0 | 28.0 | 0.00 | 0.00 | 0.00 | 1 | 1018.8 |
| 20260505231027 | 43 | 341 | 16.0 | 27.0 | 0.00 | 0.00 | 0.00 | 1 | 1018.4 |
| 20260505230514 | 45 | 333 | 19.0 | 27.0 | 0.00 | 0.00 | 0.00 | 1 | 1018.4 |
| 20260505230051 | 45 | 336 | 19.0 | 24.0 | 0.00 | 0.00 | 0.00 | 1 | 1018.4 |
| 20260505225518 | 45 | 330 | 18.0 | 23.0 | 0.00 | 0.00 | 0.00 | 1 | 1018.6 |
| 20260505225013 | 45 | 355 | 13.0 | 27.0 | 0.00 | 0.00 | 0.00 | 1 | 1018.8 |
| 20260505224538 | 44 | 351 | 19.0 | 27.0 | 0.00 | 0.00 | 0.00 | 1 | 1018.3 |
| 20260505224015 | 45 | 5 | 16.0 | 26.0 | 0.00 | 0.00 | 0.00 | 1 | 1018.6 |
| 20260505223514 | 44 | 360 | 17.0 | 28.0 | 0.00 | 0.00 | 0.00 | 1 | 1018.4 |
| 20260505223039 | 45 | 360 | 19.0 | 28.0 | 0.00 | 0.00 | 0.00 | 1 | 1018.3 |
| 20260505222519 | 44 | 338 | 16.0 | 26.0 | 0.00 | 0.00 | 0.00 | 1 | 1018.6 |
| 20260505222015 | 44 | 351 | 18.0 | 26.0 | 0.00 | 0.00 | 0.00 | 1 | 1018.7 |
| 20260505221539 | 44 | 344 | 15.0 | 27.0 | 0.00 | 0.00 | 0.00 | 1 | 1018.4 |
| 20260505221012 | 44 | 336 | 20.0 | 27.0 | 0.00 | 0.00 | 0.00 | 1 | 1018.7 |